Home   Weather   Guildford   Past weeks

Flag for United Kingdom Past Weather in Guildford, England, United Kingdom — Yesterday and Last 2 Weeks

Now
50 °F

Light rain. Scattered clouds.


Feels Like: 48 °F
Forecast: 46 / 54 °F
Wind: 6 mph from Southeast

Location: Farnborough Airport

Current Time: Apr 30, 2017 at 9:44:40 pm

Latest Report: Apr 30, 2017 at 7:20 pm


Visibility: N/A

Pressure: 29.47 "Hg

Humidity: 88%

Dew Point: 46 °F

Location of GuildfordLocation

Past Weather in Guildford — Graph

°F

Guildford Temperature Yesterday

Maximum temperature yesterday: 57 °F (at 3:50 pm)
Minimum temperature yesterday: 45 °F (at 8:20 am)
Average temperature yesterday: 52 °F

High & Low Weather Summary for the Past Weeks

 TemperatureHumidityPressure
High61 °F (Apr 22, 3:20 pm)100% (Apr 19, 6:50 am)30.63 "Hg (Apr 19, 6:50 am)
Low32 °F (Apr 19, 6:50 am)31% (Apr 19, 3:20 pm)29.47 "Hg (Apr 30, 4:20 pm)
Average51 °F63%30.19 "Hg
* Reported Apr 15 7:20 pm — Apr 30 7:20 pm, Guildford, Weather by CustomWeather, © 2017

Note: Actual official high and low records may vary slightly from our data, if they occured in-between our weather recording intervals... More about our weather records

Advertising

Guildford Weather History for the Previous 24 Hours

Scroll right to see more
 ConditionsComfort  
Time TempWeatherWind HumidityBarometerVisibility
7:20 pm
Sun, Apr 30
50 °FLight rain. Scattered clouds.6 mph88%29.47 "HgN/A
6:50 pm50 °FLight rain. Scattered clouds.7 mph88%29.47 "HgN/A
6:20 pm52 °FLight rain. Scattered clouds.12 mph77%29.47 "HgN/A
5:50 pm54 °FSprinkles. Scattered clouds.13 mph72%29.47 "HgN/A
5:20 pm55 °FScattered clouds.13 mph63%29.47 "HgN/A
4:50 pm55 °FPassing clouds.12 mph63%29.47 "HgN/A
4:20 pm55 °FPassing clouds.14 mph63%29.47 "HgN/A
3:50 pm55 °FScattered showers. Passing clouds.13 mph63%29.50 "HgN/A
3:20 pm54 °FScattered showers. Passing clouds.15 mph72%29.50 "HgN/A
2:50 pm59 °FPassing clouds.14 mph51%29.50 "HgN/A
2:20 pm57 °FPassing clouds.16 mph55%29.50 "HgN/A
1:50 pm57 °FPassing clouds.15 mph55%29.50 "HgN/A
1:20 pm57 °FPassing clouds.17 mph55%29.50 "HgN/A
12:50 pm61 °FPassing clouds.18 mph45%29.50 "HgN/A
12:20 pm61 °FSunny.18 mph45%29.50 "Hg10 mi
11:50 am59 °FPassing clouds.16 mph48%29.50 "HgN/A
11:20 am57 °FPassing clouds.10 mph51%29.53 "HgN/A
10:50 am57 °FPassing clouds.16 mph51%29.56 "HgN/A
10:20 am57 °FSunny.15 mph51%29.56 "Hg10 mi
9:50 am55 °FPassing clouds.14 mph55%29.56 "HgN/A
9:20 am55 °FSunny.12 mph55%29.59 "Hg10 mi
8:50 am52 °FSunny.10 mph62%29.62 "Hg10 mi
8:20 am52 °FSunny.10 mph62%29.62 "Hg10 mi
Weather by CustomWeather, © 2017

See weather overviewHow to use our weather pages